Location: Ariel
(45.9570°N, 122.5700°W)
Time: 16:48:14
(UTC-07:00)

Transit 4A - Pass Details

Date: 24 July 2019
Orbit: 863 x 981 km, 66.8° (Epoch: 18 August)

Event Time Altitude Azimuth Distance (km) Brightness Sun altitude
Rises 23:52:17 0° 149° (SSE) 3,641 - -21.6°
Reaches altitude 10° 23:56:45 10° 120° (ESE) 2,719 - -21.9°
Maximum altitude 23:58:54 12° 99° (E) 2,592 - -22.0°
Exits shadow 23:59:11 12° 97° (E) 2,595 10.0 -22.0°
Drops below altitude 10° 00:01:04 10° 79° (E) 2,735 10.3 -22.1°
Sets 00:05:35 0° 50° (NE) 3,692 11.3 -22.4°
